STARLINK-35177, 65673

Orbit data source: Space-Track

STARLINK-35177, 65673 is a payload satellite owned by SpaceX/Seattle (US) in SSO that was launched on Fri, 19 Sep 2025 UTC via an FALCON 9 launch vehicle from the Air Force Western Test Range (AFWTR). Payload-class satellites include a variety of spacecraft equipped with specific instruments for various scientific and technological missions. These include communications satellites like Starlink; space stations such as the ISS; scientific satellites like the Hubble; Earth observation satellites from companies like Planet Labs, Umbra, and HawkEye 360; GPS; miniature CubeSats for education and research; and military/defense satellites.

Loading next visibility...
Identifier
65673, 2025-211X
Orbit
SSO
Country
Flag of USUS
Related business
Manufacturer
SpaceX/Seattle
Mission
Operational Commercial Communications
Bus & Motor
STARLINK V2MO, Unknown motor
Mass
575 kg wet, ~530 kg dry
Launch date (UTC)
2025-09-19 (9 months ago)
Launch vehicle
FALCON 9
Launch site
Air Force Western Test Range (AFWTR)
Object type
Payload
Rocket body
Debris
Shape & HBR
Box + 2 Pan, 17.7 m
Radar Cross Section
36.964 m², Large (>1 m²)

Expand to show TLE details & history
Last TLE update: 18 hours ago

TLE from 18 hours ago
0 STARLINK-35177
1 65673U 25211X   26171.07643531  .00003595  00000-0  25291-3 0  9998
2 65673  97.3374 213.9966 0001551 107.9481 252.1916 15.05665301 42453
Epoch: 2026-06-20T01:50Z
TLE epoch observation values (Epoch: 2026-06-20T01:50:04.010Z)
Latitude
-0.00001°
Longitude
-81.81636°
Altitude
552.866 km
Speed
7.585 km/s
True Right ascension
14h 15m 59s
True Declination
0° 00' 00"
Sunlit
Object was in full shadow at epoch
Visualization orbit readout
Latitude
Unknown
Longitude
Unknown
Altitude
Unknown
Speed
Unknown
Apparent Right ascension
Unknown
Apparent Declination
Unknown
Sunlit
N/A
Visualization observer readout
Local Sidereal Time
07:12:19
Azimuth
Unknown
Elevation
Unknown
Doppler factor
Unknown
Orbital elements
Apogee altitude
547.52 km
Perigee altitude
545.372 km
Semi-major axis
6,924.583 km
Eccentricity
0.00016
Inclination
97.3374°
RAAN
213.9966°
Arg. of periapsis
107.9481°
True anomaly
252.17468°
Mean anomaly
252.1916°
Eccentric anomaly
252.18314°
Mean motion
3.76663 °/min
Orbital period
95.58 mins
BSTAR
0.00025291
Loading maneuver chart data...
Computing Atmospheric mass density...
Loading historical data...
Loading historical data...
Loading historical data...
Loading historical data...
Loading historical data...
Loading historical data...
Loading historical data...

Documentation

Showing up to 5 results
|